Flag for Cyprus Weather past 2 weeks in Larnaca, Cyprus

Now
59 °F

Sprinkles. Scattered clouds.


Feels Like: 58 °F
Forecast: 44 / 61 °F
Wind: 7 mph from North

Location: Larnaca Airport

Current Time: Dec 22, 2014 at 10:49:43 AM

Latest Report: Dec 22, 2014 at 10:00 AM


Visibility: N/A

Pressure: 30.01 "Hg

Humidity: 68%

Dew point: 48 °F

Location of LarnacaLocation

Historic Weather in Larnaca — Graph

°F

Larnaca temperature yesterday

Maximum temperature yesterday: 68 °F (at 12:00 PM)
Minimum temperature yesterday: 50 °F (at 2:30 AM)
Average temperature yesterday: 57 °F

Past Weeks' High & Low Weather Summary

 TemperatureHumidityPressure
High73 °F (Dec 12, 2:00 PM)100% (Dec 10, 2:30 AM)30.27 "Hg (Dec 10, 2:30 AM)
Low48 °F (Dec 22, 1:00 AM)38% (Dec 21, 12:00 PM)29.71 "Hg (Dec 9, 11:30 AM)
Average60 °F78%30.06 "Hg
* Reported Dec 7 9:00 AM — Dec 22 9:30 AM, Larnaca, Weather by CustomWeather, © 2014

Note: Actual official high and low records may vary slightly from our data, if they occured in-between our weather recording intervals... More about our weather records

Advertising

Larnaca weather history for previous 24 hours

 ConditionsComfort  
Time TempWeatherWind HumidityBarometerVisibility
9:30 AM
Dec 22
59 °FScattered clouds.8 mph72%30.01 "HgN/A
9:00 AM59 °FPassing clouds.6 mph77%30.01 "HgN/A
8:30 AM59 °FPassing clouds.6 mph77%30.01 "HgN/A
8:00 AM59 °FScattered clouds.6 mph72%30.01 "HgN/A
7:30 AM57 °FScattered clouds.6 mph72%30.01 "HgN/A
7:00 AM57 °FScattered clouds.3 mph72%30.01 "HgN/A
6:30 AM50 °FPassing clouds.3 mph82%30.01 "HgN/A
5:30 AM50 °FPassing clouds.5 mph82%30.01 "HgN/A
5:00 AM50 °FPassing clouds.2 mph82%30.01 "HgN/A
4:30 AM50 °FPassing clouds.3 mph76%30.01 "HgN/A
4:00 AM48 °FPassing clouds.6 mph82%30.04 "HgN/A
3:30 AM50 °FPassing clouds.2 mph76%30.04 "HgN/A
3:00 AM50 °FPassing clouds.5 mph76%30.04 "HgN/A
2:30 AM48 °FPassing clouds.3 mph82%30.07 "HgN/A
2:00 AM48 °FClear.3 mph82%30.07 "Hg10 mi
1:30 AM48 °FClear.6 mph82%30.07 "Hg10 mi
1:00 AM48 °FClear.3 mph87%30.07 "Hg10 mi
12:30 AM50 °FPassing clouds.6 mph82%30.07 "HgN/A
11:30 PM
Dec 21
54 °FClear.2 mph77%30.09 "Hg10 mi
11:00 PM59 °FPassing clouds.5 mph63%30.09 "HgN/A
10:30 PM54 °FClear.5 mph82%30.09 "Hg10 mi
10:00 PM52 °FClear.3 mph82%30.09 "Hg10 mi
9:30 PM52 °FClear.1 mph82%30.09 "Hg10 mi
9:00 PM52 °FClear.2 mph82%30.09 "Hg10 mi
8:30 PM52 °FPassing clouds.3 mph82%30.09 "HgN/A
8:00 PM52 °FPassing clouds.5 mph82%30.09 "HgN/A
7:30 PM54 °FPassing clouds.2 mph82%30.09 "HgN/A
7:00 PM55 °FPassing clouds.3 mph72%30.09 "HgN/A
6:30 PM57 °FPassing clouds.1 mph67%30.09 "HgN/A
6:00 PM59 °FPassing clouds.5 mph63%30.09 "HgN/A
5:30 PM61 °FPassing clouds.9 mph59%30.09 "HgN/A
5:00 PM63 °FPassing clouds.9 mph56%30.09 "HgN/A
4:30 PM63 °FPassing clouds.9 mph52%30.09 "HgN/A
4:00 PM64 °FPassing clouds.12 mph60%30.09 "HgN/A
3:30 PM64 °FPassing clouds.13 mph56%30.09 "HgN/A
3:00 PM66 °FPassing clouds.14 mph52%30.09 "HgN/A
2:30 PM66 °FPassing clouds.12 mph46%30.09 "HgN/A
2:00 PM66 °FPassing clouds.12 mph43%30.09 "HgN/A
1:30 PM68 °FPassing clouds.10 mph43%30.09 "HgN/A
1:00 PM68 °FPassing clouds.9 mph40%30.09 "HgN/A
12:30 PM66 °FPassing clouds.7 mph43%30.09 "HgN/A
12:00 PM68 °FPassing clouds.3 mph38%30.12 "HgN/A
11:30 AM66 °FPassing clouds.2 mph40%30.12 "HgN/A
11:00 AM66 °FPassing clouds.3 mph46%30.12 "HgN/A
10:30 AM66 °FPassing clouds.3 mph49%30.15 "HgN/A
10:00 AM64 °FPassing clouds.3 mph56%30.15 "HgN/A
Weather by CustomWeather, © 2014

See weather overviewHow to use our weather pages